DW9106 Madrid ES current weather conditions

sailwx.info

Wind from 042 at 3 knots gusting 7

Air temperature 18.9° C
Dewpoint 9.1° C

Last reported at 2014-Sep-30 22:39 UTC.
Time now 2014-Oct-01 00:04 UTC

Location: N 40°23' W 003°38'.
View on Google Maps.

See reports from other nearby stations

  
Tides and Currents Weather Stations Pressure Air Temp Water Temp Dewpoint Dewpoint Depression Visibility Wind Speed Wind Dir Waves Ship Positions
date/time (UTC)wind fromknots sea level pressurealtimeterstation pressurevisibilityair tempwater tempwave heightnotes
2014-Sep-30 22:39 042 3 gusting 7 18.9
2014-Sep-30 22:24 058 3 gusting 7 19.4
2014-Sep-30 22:09 056 2 gusting 6 19.4
2014-Sep-30 21:54 043 3 gusting 6 20.0
2014-Sep-30 21:39 030 20.0
2014-Sep-30 21:24 040 1 gusting 4 20.6
2014-Sep-30 21:09 032 2 gusting 5 20.6
2014-Sep-30 20:54 037 20.0
2014-Sep-30 20:39 037 20.0
2014-Sep-30 20:24 037 20.6
2014-Sep-30 20:09 037 20.6
2014-Sep-30 19:54 037 21.1
2014-Sep-30 19:39 037 21.7
2014-Sep-30 19:24 038 21.7
2014-Sep-30 19:09 037 22.2
2014-Sep-30 18:54 038 22.2
2014-Sep-30 18:39 038 22.8
2014-Sep-30 18:24 038 22.8
2014-Sep-30 18:09 038 23.3
2014-Sep-30 17:54 038 23.9
2014-Sep-30 17:39 038 23.9
2014-Sep-30 17:24 038 0 gusting 2 24.4
2014-Sep-30 17:09 039 24.4
2014-Sep-30 16:54 038 24.4
2014-Sep-30 16:39 072 25.0
2014-Sep-30 16:24 025 0 gusting 2 25.6
2014-Sep-30 16:09 303 26.1
2014-Sep-30 15:54 339 0 gusting 3 25.6
2014-Sep-30 15:39 244 25.6
2014-Sep-30 15:24 043 0 gusting 5 25.6
2014-Sep-30 15:09 242 0 gusting 3 26.1
2014-Sep-30 14:54 187 1 gusting 5 26.1
2014-Sep-30 14:39 234 1 gusting 5 26.1
2014-Sep-30 14:24 170 0 gusting 4 25.6
2014-Sep-30 14:09 213 1 gusting 4 26.1
2014-Sep-30 13:54 153 0 gusting 4 25.6
2014-Sep-30 13:39 201 0 gusting 4 26.1
2014-Sep-30 13:24 130 1 gusting 4 25.0
2014-Sep-30 13:09 182 0 gusting 6 25.0
2014-Sep-30 12:54 036 24.4
2014-Sep-30 12:39 049 0 gusting 5 23.9
2014-Sep-30 12:24 128 23.9
2014-Sep-30 12:09 026 23.9
2014-Sep-30 11:54 066 22.8
2014-Sep-30 11:39 052 2 gusting 4 22.8
2014-Sep-30 11:24 042 0 gusting 5 21.7
2014-Sep-30 11:09 081 1 gusting 4 21.7
2014-Sep-30 10:54 084 2 gusting 6 21.1
2014-Sep-30 10:38 108 1 gusting 6 20.0
2014-Sep-30 10:23 082 1 gusting 6 20.0
2014-Sep-30 10:08 038 2 gusting 6 19.4
2014-Sep-30 09:53 059 2 gusting 6 18.3
2014-Sep-30 09:38 064 3 gusting 6 18.3
2014-Sep-30 09:23 092 1 gusting 5 17.8
2014-Sep-30 09:08 046 2 gusting 5 17.8
2014-Sep-30 08:53 030 1 gusting 4 16.7
2014-Sep-30 08:38 052 3 gusting 6 16.1
2014-Sep-30 08:23 084 2 gusting 7 15.6
2014-Sep-30 08:08 009 3 gusting 6 15.6
2014-Sep-30 07:53 061 3 gusting 7 15.6
2014-Sep-30 07:38 041 1 gusting 4 15.6
2014-Sep-30 07:23 091 0 gusting 5 15.6
2014-Sep-30 07:07 051 15.0
2014-Sep-30 06:52 057 1 gusting 5 14.4
2014-Sep-30 06:37 045 0 gusting 2 13.9
2014-Sep-30 06:22 062 13.3
2014-Sep-30 06:07 046 13.3
2014-Sep-30 05:52 046 13.3
2014-Sep-30 04:37 046 13.9
2014-Sep-30 04:22 044 13.9
2014-Sep-30 03:52 044 13.9
2014-Sep-30 03:37 058 14.4
2014-Sep-30 03:22 058 0 gusting 2 14.4
2014-Sep-30 02:52 058 15.0
2014-Sep-30 02:37 058 0 gusting 1 15.0
2014-Sep-30 02:22 061 0 gusting 2 15.0
2014-Sep-30 02:07 032 0 gusting 2 15.0
2014-Sep-30 01:52 031 15.0
2014-Sep-30 01:37 031 15.6
2014-Sep-30 01:22 031 15.6
2014-Sep-30 01:07 038 15.6
2014-Sep-30 00:52 038 15.6
2014-Sep-30 00:37 038 15.6
2014-Sep-30 00:22 038 16.1
2014-Sep-29 23:52 026 16.1
2014-Sep-29 23:37 281 15.6
2014-Sep-29 23:22 281 16.1
2014-Sep-29 23:07 281 16.7
2014-Sep-29 22:52 281 16.7
2014-Sep-29 22:37 281 16.7
2014-Sep-29 22:22 281 16.7
2014-Sep-29 22:07 281 17.2
2014-Sep-29 21:52 281 17.8
2014-Sep-29 21:37 281 18.3
2014-Sep-29 21:22 281 18.3
2014-Sep-29 21:07 280 18.3
2014-Sep-29 20:52 280 18.3
2014-Sep-29 20:36 280 18.3
2014-Sep-29 20:21 280 18.9
2014-Sep-29 20:06 280 19.4
2014-Sep-29 19:51 280 19.4
2014-Sep-29 19:36 280 20.0
2014-Sep-29 19:21 280 0 gusting 2 20.0
2014-Sep-29 19:07 221 20.6
2014-Sep-29 18:51 220 20.6
2014-Sep-29 18:36 266 20.6
2014-Sep-29 18:21 277 21.1
2014-Sep-29 18:07 288 21.7
2014-Sep-29 17:51 238 0 gusting 2 21.7
2014-Sep-29 17:36 286 1 gusting 4 22.2
2014-Sep-29 17:21 265 0 gusting 5 22.2
2014-Sep-29 17:06 257 22.8
2014-Sep-29 16:51 285 0 gusting 7 23.3
2014-Sep-29 16:36 250 2 gusting 6 23.9
2014-Sep-29 16:21 212 1 gusting 6 23.9
2014-Sep-29 16:06 286 4 gusting 6 24.4
2014-Sep-29 15:51 222 1 gusting 6 24.4
2014-Sep-29 15:36 165 1 gusting 6 23.9
2014-Sep-29 15:21 294 3 gusting 7 24.4
2014-Sep-29 15:06 148 24.4
2014-Sep-29 14:51 221 0 gusting 6 23.9
2014-Sep-29 14:36 284 2 gusting 5 24.4
2014-Sep-29 14:21 242 0 gusting 4 23.9
2014-Sep-29 14:06 277 1 gusting 9 23.9
2014-Sep-29 13:51 059 23.3
2014-Sep-29 13:36 315 2 gusting 6 23.3
2014-Sep-29 13:21 029 2 gusting 5 22.8
2014-Sep-29 13:06 153 0 gusting 6 22.8
2014-Sep-29 12:51 238 2 gusting 6 22.2
2014-Sep-29 12:36 165 0 gusting 4 21.7
2014-Sep-29 12:21 158 0 gusting 6 21.7
2014-Sep-29 12:06 221 1 gusting 6 22.2
2014-Sep-29 11:51 183 1 gusting 6 22.8
2014-Sep-29 11:36 221 0 gusting 6 21.7
2014-Sep-29 11:21 096 1 gusting 6 21.1
2014-Sep-29 11:06 028 21.1
2014-Sep-29 10:51 198 0 gusting 6 20.6
2014-Sep-29 10:36 171 0 gusting 5 20.0
2014-Sep-29 10:21 190 0 gusting 4 20.0
2014-Sep-29 10:06 225 0 gusting 4 19.4
2014-Sep-29 09:51 126 0 gusting 4 18.9
2014-Sep-29 09:36 097 0 gusting 5 18.3
2014-Sep-29 09:20 132 0 gusting 4 17.2
2014-Sep-29 09:05 063 1 gusting 5 16.7
2014-Sep-29 08:50 089 1 gusting 5 16.7
2014-Sep-29 08:35 110 1 gusting 6 16.1
2014-Sep-29 08:20 077 3 gusting 6 16.7
2014-Sep-29 08:05 187 17.2
2014-Sep-29 07:50 165 16.7
2014-Sep-29 07:35 165 15.6
2014-Sep-29 07:20 165 15.0
2014-Sep-29 07:05 165 14.4
2014-Sep-29 06:50 165 14.4
2014-Sep-29 06:35 165 14.4
2014-Sep-29 06:20 165 14.4
2014-Sep-29 06:05 165 14.4
2014-Sep-29 05:50 165 14.4
2014-Sep-29 04:50 165 14.4
2014-Sep-29 04:35 165 14.4
2014-Sep-29 04:20 165 14.4
2014-Sep-29 04:05 165 14.4
2014-Sep-29 03:50 165 15.0
2014-Sep-29 03:35 165 15.0
2014-Sep-29 03:20 165 15.0
2014-Sep-29 03:05 165 15.0
2014-Sep-29 02:50 165 15.0
2014-Sep-29 02:35 165 15.6
2014-Sep-29 02:20 165 15.6
2014-Sep-29 02:05 165 15.6
2014-Sep-29 01:49 165 16.1
2014-Sep-29 01:35 165 16.1
2014-Sep-29 01:20 165 16.1
2014-Sep-29 01:05 165 16.1
2014-Sep-29 00:49 165 16.7
2014-Sep-29 00:34 165 16.7
2014-Sep-29 00:20 165 16.7
2014-Sep-29 00:05 165 17.2